User: anonymous   Login
Location: Elstree
(51.6403°N, 0.2969°W)
Time: 16:37:27
(UTC+00:00)
Language:

Meteor 2-4 Rocket - Orbit

View from above orbital plane
View from above orbital plane
View from above satellite
View from above satellite

Ground track
Ground track

The orbit data is extracted from the following two-line orbital elements,

1 11289U 79021B   21135.69732113 -.00000011  00000-0 -12816-4 0  9990
2 11289  81.2484 210.4275 0076236 139.4925 221.1957 14.11620169172118
Epoch (UTC): 15 May 2021 16:44:08
Eccentricity: 0.0076236
inclination: 81.2484°
perigee height: 799 km
apogee height: 909 km
right ascension of ascending node: 210.4275°
argument of perigee: 139.4925°
revolutions per day: 14.11620169
mean anomaly at epoch: 221.1957°
orbit number at epoch: 17211

The dashed part of the orbit path shows where the satellite is in the earth's shadow,  

DLR